Location: Newark
(41.0400°S, 62.7845°W)
Time: 07:53:02
(UTC+00:00)

Envisat - Pass Details

Date: 29 October 2021
Orbit: 764 x 766 km, 98.2° (Epoch: 30 November)

Event Time Altitude Azimuth Distance (km) Brightness Sun altitude
Rises 06:39:45 0° 74° (ENE) 3,239 6.6 -23.4°
Reaches altitude 10° 06:44:29 10° 114° (ESE) 2,327 6.5 -22.8°
Maximum altitude 06:45:11 10° 122° (ESE) 2,309 6.5 -22.7°
Drops below altitude 10° 06:45:54 10° 130° (SE) 2,330 6.6 -22.6°
Sets 06:50:39 0° 170° (S) 3,270 7.1 -22.0°
